Flag for Germany Weather past 2 weeks in Westerstede, Lower Saxony, Germany

Now
37 °F

Drizzle. Partly sunny.


Feels Like: 31 °F
Forecast: 34 / 43 °F
Wind: 9 mph from Southwest

Location: Wittmundhaven

Current Time: Mar 3, 2015 at 4:06:05 PM

Latest Report: Mar 3, 2015 at 3:20 PM


Visibility: 5 mi

Pressure: 29.83 "Hg

Humidity: 93%

Dew point: 36 °F

Location of WesterstedeLocation

Historic Weather in Westerstede — Graph

°F

Westerstede temperature yesterday

Maximum temperature yesterday: 45 °F (at 2:20 PM)
Minimum temperature yesterday: 34 °F (at 9:02 PM)
Average temperature yesterday: 39 °F

Past Weeks' High & Low Weather Summary

 TemperatureHumidityPressure
High48 °F (Feb 26, 3:20 PM)100% (Feb 17, 3:20 AM)30.69 "Hg (Feb 17, 3:20 AM)
Low25 °F (Feb 17, 6:20 AM)53% (Mar 2, 3:20 PM)29.21 "Hg (Feb 23, 6:20 AM)
Average38 °F85%29.84 "Hg
* Reported Feb 16 2:20 PM — Mar 3 2:20 PM, Westerstede, Weather by CustomWeather, © 2015

Note: Actual official high and low records may vary slightly from our data, if they occured in-between our weather recording intervals... More about our weather records

Advertising

Westerstede weather history for previous 24 hours

 ConditionsComfort  
Time TempWeatherWind HumidityBarometerVisibility
2:20 PM
Tue, Mar 3
36 °FDrizzle. Partly sunny.16 mph93%29.86 "Hg4 mi
1:54 PM39 °FDrizzle. Partly sunny.10 mph81%29.86 "Hg4 mi
1:20 PM41 °FBroken clouds.12 mph76%29.89 "HgN/A
12:20 PM41 °FBroken clouds.17 mph76%29.89 "HgN/A
11:20 AM41 °FScattered clouds.17 mph76%29.89 "HgN/A
10:20 AM41 °FPassing clouds.16 mph76%29.89 "HgN/A
9:20 AM39 °FPassing clouds.16 mph81%29.89 "HgN/A
8:20 AM36 °FPassing clouds.14 mph87%29.89 "HgN/A
7:20 AM34 °FScattered clouds.13 mph87%29.89 "HgN/A
6:20 AM36 °FPassing clouds.12 mph81%29.86 "HgN/A
5:20 AM36 °FPassing clouds.13 mph81%29.86 "HgN/A
4:20 AM37 °FPassing clouds.16 mph81%29.86 "HgN/A
3:20 AM39 °FPassing clouds.10 mph75%29.86 "HgN/A
2:20 AM39 °FPassing clouds.15 mph70%29.83 "HgN/A
1:20 AM39 °FPassing clouds.24 mph70%29.80 "HgN/A
12:20 AM39 °FPassing clouds.22 mph81%29.77 "HgN/A
11:20 PM
Mon, Mar 2
37 °FSprinkles. Passing clouds.29 mph87%29.74 "Hg5 mi
10:59 PM36 °FPartly cloudy.24 mph93%29.71 "HgN/A
10:20 PM36 °FSprinkles. Partly cloudy.15 mph87%29.68 "HgN/A
9:20 PM34 °FPassing clouds.15 mph93%29.68 "HgN/A
9:02 PM34 °FSnow flurries. Fog.15 mph93%29.68 "Hg2 mi
8:20 PM36 °FPassing clouds.16 mph87%29.65 "HgN/A
8:02 PM36 °FSnow flurries. Fog.13 mph87%29.65 "Hg3 mi
7:20 PM37 °FPassing clouds.13 mph81%29.65 "HgN/A
6:20 PM37 °FPartly cloudy.18 mph81%29.62 "HgN/A
5:20 PM39 °FBroken clouds.22 mph81%29.59 "HgN/A
4:20 PM43 °FScattered clouds.25 mph66%29.56 "HgN/A
Weather by CustomWeather, © 2015

See weather overviewHow to use our weather pages